Location: ????????
(54.9045°N, 39.1041°E)
Time: 03:26:32
(UTC+00:00)

Cosmos 44 Rocket - Pass Details

Date: 14 April 2024
Orbit: 641 x 742 km, 65.1° (Epoch: 25 May)

Event Time Altitude Azimuth Distance (km) Brightness Sun altitude
Exits shadow 00:10:47 29° 218° (SW) 1,343 4.2 -16.7°
Maximum altitude 00:13:29 82° 134° (SE) 755 3.4 -16.5°
Drops below altitude 10° 00:18:39 10° 47° (NE) 2,244 7.3 -15.9°
Sets 00:21:01 0° 47° (NE) 3,158 8.6 -15.7°
